Weather History for Soldotna, AK

Change the Weather History Date:

Wednesday, May 29, 2013

  Actual Average Record
Temperature  
Mean Temperature 54 °F -  
Max Temperature 71 °F 56 °F 74 °F (1963)
Min Temperature 37 °F 39 °F 31 °F (1986)
Degree Days  
Heating Degree Days 11    
Growing Degree Days 4 (Base 50)    
Moisture  
Dew Point 38 °F    
Average Humidity 52    
Maximum Humidity 81    
Minimum Humidity 33    
Precipitation  
Precipitation 0.00 in - - ()
Sea Level Pressure  
Sea Level Pressure 29.67 in    
Wind  
Wind Speed 4 mph (West)    
Max Wind Speed 16 mph    
Max Gust Speed -    
Visibility 10 miles    
Events      
Averages and records for this station are not official NWS values.
T = Trace of Precipitation, MM = Missing Value Source: NWS Daily Summary

Daily Weather History Graph

Daily Weather History Graph

Search for Another Location

Airport:

Trip Planner

Search our weather history database for the weather conditions in past years. The results will help you decide how hot, cold, wet, or windy it might be!

Date:

Astronomy

May. 29, 2013 Rise Set
Actual Time 4:52 AM AKDT 11:11 PM AKDT
Civil Twilight 3:27 AM AKDT 12:38 AM AKDT
Nautical Twilight Sun does not rise Sun does not rise
Astronomical Twilight Sun does not rise Sun does not rise
Moon 1:50 AM AKDT (5/29) 10:59 AM AKDT (5/29)
Length of Visible Light 21h 11m
Length of Day
18h 19m
Waning Gibbous, 71% of the Moon is Illuminated
May 29
Waning Gibbous
May 31
Last Quarter
Jun 8
New
Jun 16
First Quarter
Jun 23
Full

Hourly Weather History & Observations

Time (AKDT) Temp. Windchill Dew Point Humidity Pressure Visibility Wind Dir Wind Speed Gust Speed Precip Events Conditions
12:16 AM 51.8 °F - 37.4 °F 58% 29.65 in 9.0 mi Calm Calm - N/A   Clear
12:36 AM 51.8 °F - 39.2 °F 62% 29.65 in 10.0 mi Calm Calm - N/A   Clear
12:56 AM 50.0 °F - 37.4 °F 62% 29.65 in 10.0 mi Calm Calm - N/A   Clear
1:16 AM 48.2 °F - 37.4 °F 66% 29.65 in 10.0 mi Calm Calm - N/A   Clear
1:36 AM 46.4 °F - 37.4 °F 71% 29.65 in 10.0 mi Calm Calm - N/A   Clear
1:56 AM 46.4 °F - 35.6 °F 66% 29.65 in 10.0 mi Calm Calm - N/A   Clear
2:16 AM 44.6 °F - 35.6 °F 71% 29.65 in 10.0 mi Calm Calm - N/A   Clear
2:36 AM 44.6 °F - 35.6 °F 71% 29.65 in 10.0 mi Calm Calm - N/A   Clear
2:56 AM 42.8 °F - 33.8 °F 70% 29.65 in 10.0 mi Calm Calm - N/A   Clear
3:16 AM 42.8 °F 41.1 °F 35.6 °F 76% 29.65 in 10.0 mi ENE 3.5 mph - N/A   Clear
3:36 AM 42.8 °F - 33.8 °F 70% 29.65 in 10.0 mi Calm Calm - N/A   Clear
3:56 AM 41.0 °F - 33.8 °F 76% 29.65 in 10.0 mi Calm Calm - N/A   Clear
4:16 AM 39.2 °F - 33.8 °F 81% 29.66 in 10.0 mi Calm Calm - N/A   Clear
4:36 AM 39.2 °F - 32.0 °F 75% 29.66 in 10.0 mi Calm Calm - N/A   Clear
4:56 AM 37.4 °F - 30.2 °F 75% 29.66 in 10.0 mi Calm Calm - N/A   Clear
5:16 AM 37.4 °F - 32.0 °F 81% 29.66 in 10.0 mi Calm Calm - N/A   Clear
5:36 AM 37.4 °F - 30.2 °F 75% 29.66 in 10.0 mi Calm Calm - N/A   Clear
5:56 AM 39.2 °F 37.0 °F 33.8 °F 81% 29.66 in 10.0 mi ENE 3.5 mph - N/A   Clear
6:16 AM 39.2 °F - 33.8 °F 81% 29.66 in 10.0 mi Calm Calm - N/A   Clear
6:36 AM 42.8 °F - 33.8 °F 70% 29.66 in 10.0 mi Calm Calm - N/A   Clear
6:56 AM 44.6 °F - 35.6 °F 71% 29.66 in 10.0 mi Calm Calm - N/A   Clear
7:16 AM 44.6 °F - 35.6 °F 71% 29.66 in 10.0 mi Calm Calm - N/A   Clear
7:36 AM 46.4 °F - 37.4 °F 71% 29.66 in 10.0 mi Calm Calm - N/A   Clear
7:56 AM 50.0 °F - 39.2 °F 66% 29.67 in 10.0 mi Calm Calm - N/A   Clear
8:16 AM 51.8 °F - 39.2 °F 62% 29.67 in 10.0 mi Calm Calm - N/A   Clear
8:36 AM 55.4 °F - 39.2 °F 54% 29.66 in 10.0 mi NW 3.5 mph - N/A   Clear
8:56 AM 57.2 °F - 39.2 °F 51% 29.66 in 10.0 mi WNW 4.6 mph - N/A   Clear
9:16 AM 57.2 °F - 39.2 °F 51% 29.66 in 10.0 mi WNW 3.5 mph - N/A   Clear
9:36 AM 60.8 °F - 39.2 °F 45% 29.66 in 10.0 mi WNW 4.6 mph - N/A   Clear
9:56 AM 60.8 °F - 39.2 °F 45% 29.67 in 10.0 mi NW 3.5 mph - N/A   Clear
10:16 AM 62.6 °F - 41.0 °F 45% 29.67 in 10.0 mi WSW 3.5 mph - N/A   Clear
10:36 AM 64.4 °F - 42.8 °F 45% 29.67 in 10.0 mi Calm Calm - N/A   Clear
10:56 AM 66.2 °F - 42.8 °F 43% 29.66 in 10.0 mi Calm Calm - N/A   Clear
11:16 AM 66.2 °F - 42.8 °F 43% 29.66 in 10.0 mi WSW 3.5 mph - N/A   Clear
11:36 AM 68.0 °F - 44.6 °F 43% 29.66 in 10.0 mi WNW 8.1 mph - N/A   Clear
11:56 AM 69.8 °F - 44.6 °F 40% 29.65 in 10.0 mi NW 5.8 mph - N/A   Clear
12:16 PM 69.8 °F - 44.6 °F 40% 29.65 in 10.0 mi West 8.1 mph - N/A   Clear
12:36 PM 71.6 °F - 42.8 °F 35% 29.65 in 10.0 mi West 10.4 mph - N/A   Clear
12:56 PM 71.6 °F - 42.8 °F 35% 29.65 in 10.0 mi West 9.2 mph - N/A   Clear
1:16 PM 71.6 °F - 42.8 °F 35% 29.66 in 10.0 mi West 10.4 mph - N/A   Clear
1:36 PM 71.6 °F - 42.8 °F 35% 29.66 in 10.0 mi West 11.5 mph - N/A   Clear
1:56 PM 71.6 °F - 42.8 °F 35% 29.66 in 10.0 mi West 10.4 mph - N/A   Clear
2:16 PM 71.6 °F - 41.0 °F 33% 29.66 in 10.0 mi West 13.8 mph - N/A   Clear
2:36 PM 69.8 °F - 41.0 °F 35% 29.66 in 10.0 mi West 13.8 mph - N/A   Clear
2:56 PM 69.8 °F - 41.0 °F 35% 29.66 in 10.0 mi West 13.8 mph - N/A   Clear
3:16 PM 69.8 °F - 39.2 °F 33% 29.66 in 10.0 mi West 16.1 mph - N/A   Clear
3:36 PM 66.2 °F - 39.2 °F 37% 29.67 in 10.0 mi West 15.0 mph - N/A   Clear
3:56 PM 66.2 °F - 39.2 °F 37% 29.67 in 10.0 mi West 12.7 mph - N/A   Clear
4:16 PM 66.2 °F - 39.2 °F 37% 29.67 in 10.0 mi West 15.0 mph - N/A   Clear
4:36 PM 66.2 °F - 37.4 °F 35% 29.67 in 10.0 mi West 15.0 mph - N/A   Clear
4:56 PM 66.2 °F - 37.4 °F 35% 29.67 in 10.0 mi West 12.7 mph - N/A   Clear
5:16 PM 66.2 °F - 37.4 °F 35% 29.67 in 10.0 mi West 15.0 mph - N/A   Clear
5:36 PM 66.2 °F - 39.2 °F 37% 29.67 in 10.0 mi WNW 13.8 mph - N/A   Clear
5:56 PM 64.4 °F - 37.4 °F 37% 29.67 in 10.0 mi WNW 13.8 mph - N/A   Clear
6:16 PM 64.4 °F - 39.2 °F 40% 29.67 in 10.0 mi WNW 11.5 mph - N/A   Clear
6:36 PM 64.4 °F - 39.2 °F 40% 29.67 in 10.0 mi WNW 9.2 mph - N/A   Clear
6:56 PM 64.4 °F - 41.0 °F 42% 29.67 in 10.0 mi WNW 10.4 mph - N/A   Clear
7:16 PM 66.2 °F - 39.2 °F 37% 29.68 in 10.0 mi West 10.4 mph - N/A   Clear
7:36 PM 64.4 °F - 37.4 °F 37% 29.68 in 10.0 mi West 13.8 mph - N/A   Clear
7:56 PM 64.4 °F - 39.2 °F 40% 29.69 in 10.0 mi West 13.8 mph - N/A   Clear
8:16 PM 62.6 °F - 39.2 °F 42% 29.69 in 10.0 mi West 11.5 mph - N/A   Clear
8:36 PM 60.8 °F - 39.2 °F 45% 29.69 in 10.0 mi West 9.2 mph - N/A   Clear
8:56 PM 60.8 °F - 39.2 °F 45% 29.70 in 10.0 mi SW 8.1 mph - N/A   Clear
9:16 PM 59.0 °F - 39.2 °F 48% 29.70 in 10.0 mi WSW 6.9 mph - N/A   Clear
9:36 PM 59.0 °F - 39.2 °F 48% 29.71 in 10.0 mi WSW 4.6 mph - N/A   Clear
9:56 PM 59.0 °F - 39.2 °F 48% 29.71 in 10.0 mi WSW 6.9 mph - N/A   Clear
10:16 PM 57.2 °F - 39.2 °F 51% 29.72 in 10.0 mi WSW 6.9 mph - N/A   Clear
10:36 PM 57.2 °F - 39.2 °F 51% 29.72 in 10.0 mi West 6.9 mph - N/A   Clear
10:56 PM 55.4 °F - 39.2 °F 54% 29.73 in 10.0 mi West 5.8 mph - N/A   Clear
11:16 PM 55.4 °F - 39.2 °F 54% 29.74 in 10.0 mi West 5.8 mph - N/A   Clear
11:36 PM 53.6 °F - 39.2 °F 58% 29.74 in 10.0 mi Calm Calm - N/A   Clear
11:56 PM 51.8 °F - 37.4 °F 58% 29.75 in 10.0 mi Calm Calm - N/A   Clear